This demonstration page uses our WeatherBlox Daily Observations layout. Learn more.

Left ArrowRight Arrow

41.86663, -103.66717

Hourly Observations for September 10, 2018

Temp ( °F °C ) Dew Point ( °F °C ) Humidity (%) Winds ( mph kmh ) Pressure ( in mb ) Visibility ( mi km ) Precip ( " mm )
12:53 am 00:53 Clear 55 12.8 54 12.2 96 96 WNW 8 13 29.84 1010 10 16 N/A
1:53 am 01:53 Clear 55 12.8 52 11.1 90 90 NW 8 13 29.83 1010 10 16 N/A
2:53 am 02:53 Clear 52 11.1 49 9.4 89 89 NW 5 7 29.84 1011 10 16 N/A
3:53 am 03:53 Clear 50 10 48 8.9 93 93 NW 5 7 29.85 1011 10 16 N/A
4:53 am 04:53 Clear 49 9.4 47 8.3 93 93 N N/A 29.87 1011 10 16 N/A
5:53 am 05:53 Clear 50 10 46 7.8 86 86 NNW 6 9 29.88 1012 10 16 N/A
6:53 am 06:53 Sunny 48 8.9 46 7.8 93 93 NNW 7 11 29.91 1013 10 16 N/A
7:53 am 07:53 Sunny 54 12.2 48 8.9 80 80 NW 7 11 29.93 1013 10 16 N/A
8:53 am 08:53 Sunny 62 16.7 51 10.6 67 67 WNW 7 11 29.92 1013 10 16 N/A
9:53 am 09:53 Sunny 68 20 54 12.2 61 61 W 3 6 29.93 1013 10 16 N/A
10:53 am 10:53 Sunny 72 22.2 56 13.3 57 57 W 6 9 29.91 1013 10 16 N/A
11:53 am 11:53 Sunny 76 24.4 56 13.3 50 50 S 7 11 29.88 1012 10 16 N/A
12:53 pm 12:53 Sunny 80 26.7 58 14.4 47 47 VRB 6 9 29.86 1011 10 16 N/A
1:53 pm 13:53 Sunny 82 27.8 56 13.3 41 41 VRB 3 6 29.83 1010 10 16 N/A
2:53 pm 14:53 Sunny 87 30.6 52 11.1 30 30 SE 8 13 29.80 1009 10 16 N/A
3:53 pm 15:53 Sunny 86 30 47 8.3 26 26 S 7 11 29.79 1009 10 16 N/A
4:53 pm 16:53 Sunny 87 30.6 48 8.9 26 26 SSE 7 11 29.77 1008 10 16 N/A
5:53 pm 17:53 Sunny 86 30 47 8.3 26 26 E 6 9 29.76 1008 10 16 N/A
6:53 pm 18:53 Sunny 76 24.4 55 12.8 48 48 ESE 7 11 29.78 1008 10 16 N/A
7:53 pm 19:53 Clear 69 20.6 56 13.3 63 63 E 7 11 29.78 1009 10 16 N/A
8:53 pm 20:53 Clear 67 19.4 59 15 76 76 ESE 7 11 29.78 1009 10 16 N/A
9:53 pm 21:53 Clear 67 19.4 60 15.6 79 79 ESE 9 15 29.77 1008 10 16 N/A
10:53 pm 22:53 Clear 65 18.3 61 16.1 87 87 ESE 8 13 29.75 1008 10 16 N/A
11:53 pm 23:53 Clear 63 17.2 59 15 87 87 ESE 8 13 29.73 1007 10 16 N/A

Powered by AerisWeather